Date String (YYYY-MM-DD hh:mm:ss) UTC,Instrument flags,Ambient pressure (hPa),Sample flow (lpm),Bypass flow (lpm),Sample temperature (°C),Ambient temperature (°C),ASC tube jacket temperature (°C),LED temperature (°C),Box temperature (°C),Sample RH (%),Span deviation,Mass concentration (μg/m³),Mass concentration (μg/m³),Mass concentration (μg/m³)
DateTimeUTC,F1_M11,P_M11,Q1_M11,Q2_M11,T1_M11,T2_M11,T3_M11,T4_M11,T5_M11,U1_M11,ZSPAN_M11,X0_M11,X2_M11,X1_M11
2022-06-05 02:00:00,,0821.3,5.00,0.00,29.7,28.8,00.0,38.5,31.6,19.6,0000.0,0008.12,0003.22,0002.11
2022-06-05 02:01:00,,0821.3,5.00,0.00,29.7,28.2,00.0,38.4,31.4,19.4,0000.0,0008.12,0003.22,0002.13
2022-06-05 02:02:00,,0821.2,5.02,0.00,29.6,27.4,00.0,38.3,31.2,19.6,0000.0,0008.31,0003.28,0002.15
2022-06-05 02:03:00,,0821.2,4.99,0.00,29.5,27.2,00.0,38.3,31.1,19.4,0000.0,0008.34,0003.29,0002.17
2022-06-05 02:04:00,,0821.2,5.00,0.00,29.4,27.2,00.0,38.3,31.1,19.5,0000.0,0008.19,0003.32,0002.19
2022-06-05 02:05:00,,0821.2,5.00,0.00,29.4,27.3,00.0,38.3,31.1,19.6,0000.0,0008.05,0003.34,0002.20
2022-06-05 02:06:00,,0821.1,5.00,0.00,29.3,27.4,00.0,38.3,31.1,19.6,0000.0,0008.79,0003.31,0002.20
2022-06-05 02:07:00,,0821.2,5.01,0.00,29.3,27.6,00.0,38.3,31.1,19.4,0000.0,0008.58,0003.32,0002.21
2022-06-05 02:08:00,,0821.1,5.00,0.00,29.3,27.7,00.0,38.3,31.1,19.4,0000.0,0008.73,0003.32,0002.22
2022-06-05 02:09:00,,0821.1,4.99,0.00,29.3,27.8,00.0,38.3,31.2,19.3,0000.0,0008.63,0003.30,0002.23
2022-06-05 02:10:00,,0821.1,5.00,0.00,29.3,27.9,00.0,38.3,31.2,19.1,0000.0,0008.57,0003.31,0002.23
2022-06-05 02:11:00,,0821.0,4.99,0.00,29.3,28.0,00.0,38.3,31.2,19.1,0000.0,0008.55,0003.32,0002.23
2022-06-05 02:12:00,,0821.0,5.00,0.00,29.3,28.1,00.0,38.3,31.2,19.2,0000.0,0008.67,0003.34,0002.22
2022-06-05 02:13:00,,0821.0,5.00,0.00,29.3,28.2,00.0,38.3,31.2,19.2,0000.0,0008.52,0003.34,0002.21
2022-06-05 02:14:00,,0821.0,5.00,0.00,29.4,28.2,00.0,38.3,31.3,19.1,0000.0,0008.58,0003.37,0002.19
2022-06-05 02:15:00,,0821.0,5.00,0.00,29.4,28.3,00.0,38.3,31.3,19.1,0000.0,0008.62,0003.38,0002.19
2022-06-05 02:16:00,,0821.0,5.00,0.00,29.4,28.4,00.0,38.3,31.3,19.1,0000.0,0008.59,0003.38,0002.19
2022-06-05 02:17:00,,0821.0,4.99,0.00,29.4,28.4,00.0,38.3,31.3,19.0,0000.0,0008.61,0003.38,0002.20
2022-06-05 02:18:00,,0821.0,5.01,0.00,29.4,28.5,00.0,38.3,31.4,19.1,0000.0,0008.78,0003.34,0002.20
2022-06-05 02:19:00,,0821.0,5.01,0.00,29.5,28.5,00.0,38.3,31.4,19.2,0000.0,0008.67,0003.37,0002.23
2022-06-05 02:20:00,,0821.0,5.01,0.00,29.5,28.6,00.0,38.3,31.4,19.2,0000.0,0008.69,0003.40,0002.24
2022-06-05 02:21:00,,0820.9,4.99,0.00,29.5,28.6,00.0,38.3,31.4,19.5,0000.0,0009.27,0003.39,0002.25
2022-06-05 02:22:00,,0820.9,5.01,0.00,29.5,28.6,00.0,38.3,31.5,19.4,0000.0,0009.19,0003.37,0002.26
2022-06-05 02:23:00,,0820.8,5.00,0.00,29.6,28.7,00.0,38.4,31.5,19.2,0000.0,0009.18,0003.43,0002.27
2022-06-05 02:24:00,,0820.8,5.00,0.00,29.6,28.7,00.0,38.4,31.5,19.3,0000.0,0009.10,0003.43,0002.29
2022-06-05 02:25:00,,0820.9,5.00,0.00,29.6,28.7,00.0,38.4,31.6,19.2,0000.0,0009.07,0003.43,0002.30
2022-06-05 02:26:00,,0820.9,4.99,0.00,29.6,28.8,00.0,38.4,31.6,19.2,0000.0,0009.33,0003.41,0002.31
2022-06-05 02:27:00,,0820.8,5.00,0.00,29.7,28.8,00.0,38.4,31.6,18.9,0000.0,0009.41,0003.40,0002.32
2022-06-05 02:28:00,,0820.8,5.00,0.00,29.7,28.8,00.0,38.5,31.6,19.2,0000.0,0008.87,0003.45,0002.31
2022-06-05 02:29:00,,0820.8,4.99,0.00,29.7,28.8,00.0,38.5,31.7,19.1,0000.0,0009.21,0003.51,0002.32
2022-06-05 02:30:00,,0820.8,5.02,0.00,29.7,28.6,00.0,38.5,31.6,18.8,0000.0,0009.44,0003.51,0002.31
2022-06-05 02:31:00,,0820.7,4.98,0.00,29.7,27.7,00.0,38.4,31.4,18.8,0000.0,0009.35,0003.48,0002.32
2022-06-05 02:32:00,,0820.7,5.01,0.00,29.6,27.3,00.0,38.3,31.2,18.8,0000.0,0009.07,0003.49,0002.32
2022-06-05 02:33:00,,0820.6,5.00,0.00,29.5,27.3,00.0,38.3,31.2,18.9,0000.0,0009.04,0003.48,0002.31
2022-06-05 02:34:00,,0820.6,5.00,0.00,29.4,27.3,00.0,38.3,31.1,19.6,0000.0,0008.94,0003.44,0002.32
2022-06-05 02:35:00,,0820.6,5.01,0.00,29.4,27.4,00.0,38.3,31.2,19.7,0000.0,0008.89,0003.41,0002.33
2022-06-05 02:36:00,,0820.6,4.99,0.00,29.4,27.6,00.0,38.3,31.2,19.7,0000.0,0008.75,0003.37,0002.33
2022-06-05 02:37:00,,0820.6,4.99,0.00,29.4,27.7,00.0,38.3,31.2,19.5,0000.0,0008.32,0003.36,0002.32
2022-06-05 02:38:00,,0820.6,5.02,0.00,29.4,27.8,00.0,38.3,31.2,19.4,0000.0,0008.28,0003.36,0002.32
2022-06-05 02:39:00,,0820.5,5.00,0.00,29.4,28.0,00.0,38.3,31.3,19.2,0000.0,0008.15,0003.34,0002.34
2022-06-05 02:40:00,,0820.5,5.00,0.00,29.4,28.1,00.0,38.3,31.3,19.3,0000.0,0007.43,0003.28,0002.34
2022-06-05 02:41:00,,0820.5,5.00,0.00,29.4,28.2,00.0,38.3,31.3,19.3,0000.0,0007.97,0003.27,0002.34
2022-06-05 02:42:00,,0820.6,5.01,0.00,29.4,28.2,00.0,38.3,31.3,19.3,0000.0,0008.12,0003.26,0002.32
2022-06-05 02:43:00,,0820.6,5.00,0.00,29.4,28.3,00.0,38.3,31.4,19.4,0000.0,0007.94,0003.25,0002.31
2022-06-05 02:44:00,,0820.5,5.00,0.00,29.5,28.4,00.0,38.3,31.4,19.7,0000.0,0008.21,0003.29,0002.33
2022-06-05 02:45:00,,0820.6,5.00,0.00,29.5,28.4,00.0,38.3,31.4,19.7,0000.0,0008.50,0003.30,0002.33
2022-06-05 02:46:00,,0820.6,5.00,0.00,29.5,28.5,00.0,38.3,31.4,19.3,0000.0,0008.71,0003.30,0002.34
2022-06-05 02:47:00,,0820.5,5.00,0.00,29.5,28.5,00.0,38.3,31.5,19.3,0000.0,0008.76,0003.30,0002.32
2022-06-05 02:48:00,,0820.6,5.00,0.00,29.5,28.5,00.0,38.4,31.5,19.2,0000.0,0008.92,0003.27,0002.31
2022-06-05 02:49:00,,0820.6,5.01,0.00,29.6,28.6,00.0,38.4,31.5,19.4,0000.0,0009.04,0003.29,0002.29
2022-06-05 02:50:00,,0820.6,5.00,0.00,29.6,28.6,00.0,38.4,31.5,19.4,0000.0,0009.03,0003.27,0002.27
2022-06-05 02:51:00,,0820.6,5.00,0.00,29.6,28.6,00.0,38.4,31.5,19.3,0000.0,0009.12,0003.32,0002.23
2022-06-05 02:52:00,,0820.6,5.01,0.00,29.6,28.7,00.0,38.4,31.6,19.3,0000.0,0008.69,0003.36,0002.22
2022-06-05 02:53:00,,0820.6,4.99,0.00,29.6,28.7,00.0,38.4,31.6,19.0,0000.0,0008.39,0003.36,0002.21
2022-06-05 02:54:00,,0820.6,5.00,0.00,29.7,28.7,00.0,38.5,31.6,18.8,0000.0,0008.65,0003.37,0002.21
2022-06-05 02:55:00,,0820.6,5.00,0.00,29.7,28.8,00.0,38.5,31.6,18.7,0000.0,0008.83,0003.34,0002.20
2022-06-05 02:56:00,,0820.7,4.99,0.00,29.7,28.8,00.0,38.5,31.6,18.8,0000.0,0008.55,0003.32,0002.17
2022-06-05 02:57:00,,0820.7,5.00,0.00,29.7,28.8,00.0,38.5,31.7,19.0,0000.0,0008.35,0003.36,0002.16
2022-06-05 02:58:00,,0820.7,5.01,0.00,29.7,28.8,00.0,38.5,31.7,19.0,0000.0,0008.68,0003.40,0002.14
2022-06-05 02:59:00,,0820.7,5.00,0.00,29.8,28.8,00.0,38.5,31.7,19.1,0000.0,0008.73,0003.44,0002.16
